Regional Weather Roundup
Issued by NWS Newport/Morehead, NC

Current Version | Previous Version | Graphics & Text | Print | Product List | Glossary Off
Versions: 1 2 3 4 5 6 7 8 9 10 11 12 13 14 15 16 17 18 19 20 21 22 23 24 25 26 27 28 29 30 31 32 33 34 35 36 37 38 39 40 41 42 43 44 45 46 47 48 49 50

000
ASUS42 KMHX 170525
RWRMHX
WEATHER ROUNDUP FOR EASTERN NORTH CAROLINA
NATIONAL WEATHER SERVICE NEWPORT/MOREHEAD CITY NC
1200 AM EST TUE JAN 17 2017

NOTE: "FAIR" INDICATES FEW OR NO CLOUDS BELOW 12,000 FEET
WITH NO SIGNIFICANT WEATHER AND/OR OBSTRUCTIONS TO VISIBILITY

NCZ015>017-031-032-045>047-102-103-170600-
NORTH COAST

CITY           SKY/WX    TMP DP  RH WIND       PRES   REMARKS
EDENTON        CLOUDY    42  39  91 CALM      30.32F
ELIZABETH CITY PTCLDY    38  37  97 NW3       30.32F
KITTY HAWK     NOT AVBL
MANTEO         PTCLDY    41  39  94 N5        30.31F

$$

NCZ045>047-081-094-103-104-170600-
CENTRAL COAST

CITY           SKY/WX    TMP DP  RH WIND       PRES   REMARKS
FRISCO         MOCLDY    47  43  86 N5        30.30F

$$

NCZ095-097-098-100-101-170600-
SOUTHERN COAST

CITY           SKY/WX    TMP DP  RH WIND       PRES   REMARKS
BEAUFORT       PTCLDY    48  43  82 NE5       30.31F
CEDAR ISLAND   NOT AVBL
JACKSONVILLE   NOT AVBL
PINEY ISLAND   MOCLDY   N/A N/A N/A CALM      30.30F
WILMINGTON     CLOUDY    51  47  86 CALM      30.31F


$$

NCZ011>013-027>030-043-044-078>080-089-090>093-098-170600-
COASTAL PLAIN

CITY           SKY/WX    TMP DP  RH WIND       PRES   REMARKS
AHOSKIE          N/A     44  40  85 CALM      30.32F
CLINTON        CLOUDY    51  47  87 CALM      30.32F
ELIZABETHTOWN  CLOUDY    49  47  91 CALM      30.30F
GOLDSBORO      CLOUDY    51  45  82 CALM      30.30F
GREENVILLE     CLOUDY    48  45  87 CALM      30.32F
HAVELOCK       CLOUDY    47  43  86 CALM      30.32F
KENANSVILLE    CLOUDY    50  45  81 CALM      30.32F
KINSTON        CLOUDY    50  45  82 CALM      30.32F
NEW BERN       MOCLDY    44  41  89 CALM      30.32F
RICHLANDS      CLOUDY    47  46  97 CALM      30.31F
ROCKY MOUNT    CLOUDY    47  44  90 CALM      30.32F
WASHINGTON     CLOUDY    45  40  83 CALM      30.32F
WHITEVILLE     CLOUDY    49  47  92 CALM      30.30F

$$

AMZ130-135-150-152-154-156-158-170-250-252-270-ANZ085-086-088-633-658-670-170600-
MARINE OBSERVATIONS

STATION/POSITION TIME  TEMP    WIND        PRES    WAVE   SWELL
                       AIR SEA DIR/SP/G            HT/PER HT/PER
                 (UTC) (F)     (DEG/KT/KT) (MB)    (FT/S) (FT/S)
CHESAPEAKE LIGHT NOT AVBL
64 E VA BEACH    0450   54 58  360/  6/  8 1026.1    2/ 9   2/ 9
DUCK             0500   44 44  350/  6/  7 1025.5
2 E DUCK         0500      44                N/A     2/ 9
OREGON INLET     0500   44 49  360/  3/  4 1025.9
13E OREGON INLT  NOT AVBL
HATTERAS CG      0500   46 53   10/  8/  9 1025.4
DIAMOND BUOY     0450   56 73   10/ 10/ 12 1025.9    3/ 8   3/ 8
CAPE LOOKOUT     0500   49     360/  6/  7 1025.7
BEAUFORT LAB     0500   47 49   10/  3/  4 1025.1
30 SE NEW RVR IN 0508   56 61   40/  6/  8 1026.1
30 SE NEW RVR IN 0513      61                N/A     3/ 9   2/11
27 SE WRIGHTSVLE 0508   60 68   70/  6/ 10 1025.8
5 SE WRIGHTSVLE  0508   53      40/  6/  8 1026.0
225 S CAPE HAT   0450   70 71  170/ 14/ 16 1025.7    3/ 8   3/ 8
41 SE CHARLESTON 0450   69 70   60/  6/  8 1024.8    4/ 6   3/ 6

$$




USA.gov is the U.S. government's official web portal to all federal, state and local government web resources and services.